| time (UTC) | temp C | wind direction | speed KPH | gust KPH | rain 1hr cm | rain 24hr cm | rain mn cm | humidity % | barometer mb |
| 20260901113014 | 12 | 276 | 3.2 | 4.8 | 0.00 | 0.00 | 0.00 | 93 | 1014.2 |
| 20260901112513 | 12 | 276 | 3.2 | 6.4 | 0.00 | 0.00 | 0.00 | 93 | 1014.1 |
| 20260901112012 | 12 | 275 | 4.8 | 6.4 | 0.00 | 0.00 | 0.00 | 93 | 1014.0 |
| 20260901111514 | 12 | 278 | 4.8 | 8.0 | 0.00 | 0.00 | 0.00 | 93 | 1014.0 |
| 20260901111012 | 12 | 279 | 6.4 | 8.0 | 0.00 | 0.00 | 0.00 | 93 | 1013.9 |
| 20260901110512 | 12 | 235 | 4.8 | 6.4 | 0.00 | 0.00 | 0.00 | 93 | 1013.9 |
| 20260901110015 | 12 | 237 | 4.8 | 8.0 | 0.00 | 0.00 | 0.00 | 93 | 1013.9 |
| 20260901105513 | 12 | 269 | 4.8 | 8.0 | 0.00 | 0.00 | 0.00 | 92 | 1013.9 |
| 20260901105012 | 12 | 292 | 6.4 | 9.7 | 0.00 | 0.00 | 0.00 | 93 | 1013.8 |
| 20260901104742 | 12 | 305 | 8.0 | 9.7 | 0.00 | 0.00 | 0.00 | 92 | 1013.9 |
| 20260901104016 | 12 | 295 | 8.0 | 9.7 | 0.00 | 0.00 | 0.00 | 93 | 1013.8 |
| 20260901103514 | 12 | 281 | 6.4 | 6.4 | 0.00 | 0.00 | 0.00 | 93 | 1013.8 |
| 20260901103013 | 12 | 264 | 4.8 | 6.4 | 0.00 | 0.00 | 0.00 | 93 | 1013.8 |
| 20260901102515 | 12 | 261 | 4.8 | 8.0 | 0.00 | 0.00 | 0.00 | 93 | 1013.8 |
| 20260901102013 | 12 | 269 | 6.4 | 8.0 | 0.00 | 0.00 | 0.00 | 93 | 1013.7 |
| 20260901101744 | 12 | 279 | 6.4 | 8.0 | 0.00 | 0.00 | 0.00 | 93 | 1013.6 |
| 20260901101015 | 12 | 276 | 6.4 | 8.0 | 0.00 | 0.00 | 0.00 | 93 | 1013.5 |
| 20260901100512 | 12 | 298 | 6.4 | 8.0 | 0.00 | 0.00 | 0.00 | 93 | 1013.6 |
| 20260901100016 | 12 | 290 | 8.0 | 8.0 | 0.00 | 0.00 | 0.00 | 92 | 1013.7 |
| 20260901095511 | 13 | 276 | 6.4 | 8.0 | 0.00 | 0.00 | 0.00 | 92 | 1013.6 |
| 20260901095013 | 13 | 275 | 6.4 | 9.7 | 0.00 | 0.00 | 0.00 | 93 | 1013.6 |
| 20260901094513 | 13 | 281 | 6.4 | 9.7 | 0.00 | 0.00 | 0.00 | 93 | 1013.6 |
| 20260901094011 | 13 | 268 | 6.4 | 9.7 | 0.00 | 0.00 | 0.00 | 93 | 1013.6 |
| 20260901093740 | 13 | 296 | 8.0 | 9.7 | 0.00 | 0.00 | 0.00 | 93 | 1013.7 |
| 20260901093011 | 13 | 285 | 8.0 | 9.7 | 0.00 | 0.00 | 0.00 | 92 | 1013.6 |
| 20260901092501 | 13 | 279 | 8.0 | 11.3 | 0.00 | 0.00 | 0.00 | 92 | 1013.6 |
| 20260901092000 | 13 | 292 | 8.0 | 11.3 | 0.00 | 0.00 | 0.00 | 92 | 1013.6 |
| 20260901091501 | 13 | 286 | 8.0 | 9.7 | 0.00 | 0.00 | 0.00 | 93 | 1013.7 |
| 20260901091001 | 13 | 279 | 8.0 | 9.7 | 0.00 | 0.00 | 0.00 | 93 | 1013.8 |
| 20260901090501 | 13 | 288 | 6.4 | 8.0 | 0.00 | 0.00 | 0.00 | 93 | 1013.7 |
| 20260901090001 | 13 | 269 | 6.4 | 6.4 | 0.00 | 0.00 | 0.00 | 92 | 1013.7 |
| 20260901085501 | 13 | 286 | 6.4 | 6.4 | 0.00 | 0.00 | 0.00 | 92 | 1013.7 |
| 20260901085001 | 13 | 286 | 6.4 | 6.4 | 0.00 | 0.00 | 0.00 | 93 | 1013.7 |
| 20260901084742 | 12 | 288 | 6.4 | 6.4 | 0.00 | 0.00 | 0.00 | 92 | 1013.6 |
| 20260901084001 | 12 | 286 | 4.8 | 6.4 | 0.00 | 0.00 | 0.00 | 92 | 1013.6 |
| 20260901083513 | 13 | 288 | 4.8 | 8.0 | 0.00 | 0.00 | 0.00 | 91 | 1013.5 |
| 20260901083000 | 13 | 307 | 6.4 | 8.0 | 0.00 | 0.00 | 0.00 | 92 | 1013.5 |
| 20260901082741 | 13 | 299 | 6.4 | 8.0 | 0.00 | 0.00 | 0.00 | 92 | 1013.5 |
| 20260901081958 | 13 | 290 | 4.8 | 8.0 | 0.00 | 0.00 | 0.00 | 92 | 1013.5 |
| 20260901081457 | 13 | 275 | 6.4 | 9.7 | 0.00 | 0.00 | 0.00 | 92 | 1013.5 |
| 20260901080958 | 13 | 283 | 8.0 | 9.7 | 0.00 | 0.00 | 0.00 | 92 | 1013.4 |
| 20260901080458 | 13 | 286 | 4.8 | 8.0 | 0.00 | 0.00 | 0.00 | 92 | 1013.5 |
| 20260901075957 | 13 | 261 | 4.8 | 4.8 | 0.00 | 0.00 | 0.00 | 92 | 1013.5 |
| 20260901075457 | 13 | 266 | 3.2 | 6.4 | 0.00 | 0.00 | 0.00 | 92 | 1013.4 |
| 20260901074957 | 13 | 282 | 4.8 | 6.4 | 0.00 | 0.00 | 0.00 | 92 | 1013.5 |
| 20260901074457 | 13 | 295 | 6.4 | 6.4 | 0.00 | 0.00 | 0.00 | 92 | 1013.4 |
| 20260901073956 | 13 | 289 | 4.8 | 6.4 | 0.00 | 0.00 | 0.00 | 92 | 1013.5 |
| 20260901073457 | 13 | 279 | 4.8 | 6.4 | 0.00 | 0.00 | 0.00 | 91 | 1013.5 |
| 20260901072958 | 13 | 257 | 4.8 | 6.4 | 0.00 | 0.00 | 0.00 | 92 | 1013.6 |
| 20260901072456 | 13 | 281 | 4.8 | 8.0 | 0.00 | 0.00 | 0.00 | 91 | 1013.7 |
| 20260901071957 | 14 | 275 | 6.4 | 8.0 | 0.00 | 0.00 | 0.00 | 92 | 1013.7 |
| 20260901071455 | 13 | 293 | 6.4 | 8.0 | 0.00 | 0.00 | 0.00 | 92 | 1013.8 |
| 20260901070952 | 14 | 288 | 8.0 | 8.0 | 0.00 | 0.00 | 0.00 | 91 | 1013.9 |
| 20260901070452 | 14 | 279 | 6.4 | 8.0 | 0.00 | 0.00 | 0.00 | 92 | 1013.8 |
| 20260901065954 | 14 | 261 | 6.4 | 9.7 | 0.00 | 0.00 | 0.00 | 92 | 1013.8 |
| 20260901065451 | 14 | 281 | 6.4 | 9.7 | 0.00 | 0.00 | 0.00 | 91 | 1013.8 |
| 20260901064951 | 14 | 255 | 8.0 | 9.7 | 0.00 | 0.00 | 0.00 | 92 | 1013.8 |
| 20260901064452 | 14 | 252 | 6.4 | 8.0 | 0.00 | 0.00 | 0.00 | 91 | 1013.8 |
| 20260901063951 | 14 | 282 | 4.8 | 9.7 | 0.00 | 0.00 | 0.00 | 92 | 1014.0 |
| 20260901063452 | 14 | 243 | 6.4 | 9.7 | 0.00 | 0.00 | 0.00 | 92 | 1013.8 |
| 20260901062952 | 13 | 243 | 8.0 | 11.3 | 0.00 | 0.00 | 0.00 | 91 | 1014.0 |
| 20260901062451 | 14 | 266 | 6.4 | 11.3 | 0.00 | 0.00 | 0.00 | 92 | 1014.1 |
| 20260901061948 | 14 | 290 | 8.0 | 9.7 | 0.00 | 0.00 | 0.00 | 91 | 1014.2 |
| 20260901061449 | 14 | 274 | 6.4 | 6.4 | 0.00 | 0.00 | 0.00 | 91 | 1014.0 |
| 20260901060947 | 15 | 268 | 4.8 | 8.0 | 0.00 | 0.00 | 0.00 | 91 | 1014.1 |
| 20260901060447 | 15 | 255 | 4.8 | 8.0 | 0.00 | 0.00 | 0.00 | 92 | 1014.0 |
| 20260901055945 | 15 | 247 | 6.4 | 8.0 | 0.00 | 0.00 | 0.00 | 91 | 1014.0 |
| 20260901055447 | 15 | 250 | 6.4 | 8.0 | 0.00 | 0.00 | 0.00 | 92 | 1014.0 |
| 20260901054940 | 15 | 251 | 6.4 | 8.0 | 0.00 | 0.00 | 0.00 | 91 | 1014.0 |
| 20260901054441 | 15 | 259 | 6.4 | 9.7 | 0.00 | 0.00 | 0.00 | 92 | 1014.0 |
| 20260901054227 | 15 | 257 | 8.0 | 9.7 | 0.00 | 0.00 | 0.00 | 92 | 1014.1 |
| 20260901053729 | 15 | 262 | 6.4 | 8.0 | 0.00 | 0.00 | 0.00 | 91 | 1014.0 |
| 20260901052955 | 14 | 266 | 6.4 | 8.0 | 0.00 | 0.00 | 0.00 | 91 | 1013.9 |
| 20260901051938 | 15 | 278 | 6.4 | 9.7 | 0.00 | 0.00 | 0.00 | 91 | 1014.0 |
| 20260901051438 | 15 | 271 | 8.0 | 9.7 | 0.00 | 0.00 | 0.00 | 91 | 1014.0 |
| 20260901051225 | 15 | 259 | 6.4 | 8.0 | 0.00 | 0.00 | 0.00 | 91 | 1014.0 |
| 20260901050438 | 15 | 254 | 4.8 | 6.4 | 0.00 | 0.00 | 0.00 | 91 | 1014.0 |
| 20260901045937 | 15 | 269 | 6.4 | 6.4 | 0.00 | 0.00 | 0.00 | 91 | 1013.9 |
| 20260901045437 | 15 | 275 | 6.4 | 6.4 | 0.00 | 0.00 | 0.00 | 91 | 1013.9 |
| 20260901044938 | 15 | 283 | 4.8 | 6.4 | 0.00 | 0.00 | 0.00 | 91 | 1013.9 |
| 20260901044437 | 15 | 275 | 4.8 | 6.4 | 0.00 | 0.00 | 0.00 | 91 | 1013.9 |
| 20260901043935 | 15 | 271 | 4.8 | 6.4 | 0.00 | 0.00 | 0.00 | 91 | 1014.0 |
| 20260901043435 | 15 | 271 | 4.8 | 8.0 | 0.00 | 0.00 | 0.00 | 91 | 1013.9 |
| 20260901042937 | 16 | 274 | 6.4 | 8.0 | 0.00 | 0.00 | 0.00 | 91 | 1013.9 |
| 20260901042433 | 16 | 278 | 4.8 | 8.0 | 0.00 | 0.00 | 0.00 | 91 | 1013.9 |
| 20260901041934 | 16 | 276 | 6.4 | 8.0 | 0.00 | 0.00 | 0.00 | 91 | 1013.8 |
| 20260901041434 | 16 | 275 | 6.4 | 6.4 | 0.00 | 0.00 | 0.00 | 91 | 1013.8 |
| 20260901040935 | 16 | 268 | 4.8 | 8.0 | 0.00 | 0.00 | 0.00 | 91 | 1013.8 |
| 20260901040435 | 16 | 259 | 4.8 | 8.0 | 0.00 | 0.00 | 0.00 | 91 | 1013.9 |
| 20260901035934 | 16 | 255 | 6.4 | 6.4 | 0.00 | 0.00 | 0.00 | 90 | 1013.7 |
| 20260901035433 | 16 | 269 | 4.8 | 6.4 | 0.00 | 0.00 | 0.00 | 90 | 1013.8 |
| 20260901035220 | 16 | 269 | 4.8 | 6.4 | 0.00 | 0.00 | 0.00 | 90 | 1013.8 |
| 20260901034432 | 16 | 278 | 4.8 | 8.0 | 0.00 | 0.00 | 0.00 | 90 | 1013.8 |
| 20260901033933 | 16 | 272 | 4.8 | 8.0 | 0.00 | 0.00 | 0.00 | 90 | 1013.7 |
| 20260901033448 | 17 | 269 | 4.8 | 6.4 | 0.00 | 0.00 | 0.00 | 90 | 1013.8 |
| 20260901032432 | 17 | 264 | 6.4 | 8.0 | 0.00 | 0.00 | 0.00 | 90 | 1013.7 |
| 20260901031934 | 17 | 258 | 6.4 | 8.0 | 0.00 | 0.00 | 0.00 | 89 | 1013.7 |
| 20260901031716 | 17 | 264 | 4.8 | 8.0 | 0.00 | 0.00 | 0.00 | 90 | 1013.5 |
| 20260901030932 | 17 | 252 | 6.4 | 8.0 | 0.00 | 0.00 | 0.00 | 89 | 1013.5 |
| 20260901030432 | 17 | 248 | 6.4 | 8.0 | 0.00 | 0.00 | 0.00 | 88 | 1013.6 |
| 20260901025934 | 17 | 245 | 6.4 | 9.7 | 0.00 | 0.00 | 0.00 | 88 | 1013.5 |
| 20260901025430 | 17 | 250 | 8.0 | 9.7 | 0.00 | 0.00 | 0.00 | 89 | 1013.4 |
| 20260901024930 | 18 | 238 | 8.0 | 9.7 | 0.00 | 0.00 | 0.00 | 89 | 1013.4 |
| 20260901024430 | 18 | 233 | 6.4 | 8.0 | 0.00 | 0.00 | 0.00 | 88 | 1013.3 |
| 20260901023929 | 18 | 228 | 4.8 | 6.4 | 0.00 | 0.00 | 0.00 | 89 | 1013.2 |
| 20260901023429 | 18 | 245 | 3.2 | 4.8 | 0.00 | 0.00 | 0.00 | 88 | 1013.2 |
| 20260901022929 | 18 | 245 | 3.2 | 4.8 | 0.00 | 0.00 | 0.00 | 88 | 1013.3 |
| 20260901022429 | 18 | 245 | 3.2 | 4.8 | 0.00 | 0.00 | 0.00 | 88 | 1013.3 |
| 20260901021930 | 18 | 245 | 3.2 | 4.8 | 0.00 | 0.00 | 0.00 | 88 | 1013.3 |
| 20260901021717 | 18 | 238 | 3.2 | 4.8 | 0.00 | 0.00 | 0.00 | 87 | 1013.2 |
| 20260901020929 | 18 | 238 | 3.2 | 4.8 | 0.00 | 0.00 | 0.00 | 87 | 1013.1 |
| 20260901020429 | 18 | 238 | 4.8 | 4.8 | 0.00 | 0.00 | 0.00 | 87 | 1013.0 |
| 20260901015928 | 18 | 237 | 3.2 | 6.4 | 0.00 | 0.00 | 0.00 | 87 | 1013.0 |
| 20260901015428 | 19 | 234 | 4.8 | 6.4 | 0.00 | 0.00 | 0.00 | 85 | 1012.9 |
| 20260901014929 | 19 | 230 | 4.8 | 6.4 | 0.00 | 0.00 | 0.00 | 84 | 1013.0 |
| 20260901014428 | 20 | 224 | 3.2 | 4.8 | 0.00 | 0.00 | 0.00 | 84 | 1012.9 |
| 20260901013928 | 20 | 224 | 4.8 | 4.8 | 0.00 | 0.00 | 0.00 | 83 | 1012.7 |
| 20260901013427 | 20 | 233 | 4.8 | 4.8 | 0.00 | 0.00 | 0.00 | 83 | 1012.8 |
| 20260901012925 | 20 | 233 | 4.8 | 4.8 | 0.00 | 0.00 | 0.00 | 83 | 1012.9 |
| 20260901012428 | 20 | 230 | 3.2 | 6.4 | 0.00 | 0.00 | 0.00 | 82 | 1012.7 |
| 20260901011925 | 20 | 230 | 4.8 | 6.4 | 0.00 | 0.00 | 0.00 | 82 | 1012.7 |
| 20260901011424 | 21 | 238 | 4.8 | 6.4 | 0.00 | 0.00 | 0.00 | 81 | 1012.7 |
| 20260901010924 | 21 | 243 | 4.8 | 8.0 | 0.00 | 0.00 | 0.00 | 80 | 1012.7 |
| 20260901010424 | 21 | 221 | 6.4 | 8.0 | 0.00 | 0.00 | 0.00 | 80 | 1012.6 |
| 20260901005923 | 21 | 224 | 4.8 | 6.4 | 0.00 | 0.00 | 0.00 | 79 | 1012.6 |
| 20260901005426 | 22 | 220 | 3.2 | 6.4 | 0.00 | 0.00 | 0.00 | 78 | 1012.6 |
| 20260901004923 | 22 | 210 | 4.8 | 6.4 | 0.00 | 0.00 | 0.00 | 78 | 1012.4 |
| 20260901004423 | 22 | 223 | 4.8 | 6.4 | 0.00 | 0.00 | 0.00 | 78 | 1012.4 |
| 20260901003924 | 23 | 228 | 4.8 | 6.4 | 0.00 | 0.00 | 0.00 | 75 | 1012.6 |
| 20260901003422 | 23 | 228 | 4.8 | 6.4 | 0.00 | 0.00 | 0.00 | 75 | 1012.6 |
| 20260901002921 | 23 | 231 | 6.4 | 6.4 | 0.00 | 0.00 | 0.00 | 72 | 1012.7 |
| 20260901002422 | 23 | 228 | 3.2 | 6.4 | 0.00 | 0.00 | 0.00 | 72 | 1012.6 |
| 20260901001921 | 23 | 234 | 3.2 | 6.4 | 0.00 | 0.00 | 0.00 | 74 | 1012.6 |
| 20260901001421 | 23 | 240 | 3.2 | 6.4 | 0.00 | 0.00 | 0.00 | 68 | 1012.6 |
| 20260901000919 | 24 | 221 | 3.2 | 4.8 | 0.00 | 0.00 | 0.00 | 70 | 1012.6 |
| 20260901000420 | 24 | 234 | 1.6 | 3.2 | 0.00 | 0.00 | 0.00 | 67 | 1012.4 |
| 20260831235920 | 24 | 234 | 1.6 | 4.8 | 0.00 | 0.00 | 0.00 | 66 | 1012.4 |
| 20260831235419 | 24 | 234 | 3.2 | 4.8 | 0.00 | 0.00 | 0.00 | 67 | 1012.4 |
| 20260831234919 | 24 | 254 | 3.2 | 3.2 | 0.00 | 0.00 | 0.00 | 66 | 1012.7 |
| 20260831234417 | 24 | 254 | 1.6 | 3.2 | 0.00 | 0.00 | 0.00 | 66 | 1012.4 |
| 20260831233919 | 25 | 257 | 3.2 | 3.2 | 0.00 | 0.00 | 0.00 | 67 | 1012.6 |
| 20260831233417 | 25 | 262 | 1.6 | 6.4 | 0.00 | 0.00 | 0.00 | 64 | 1012.4 |
| 20260831232918 | 25 | 258 | 4.8 | 6.4 | 0.00 | 0.00 | 0.00 | 64 | 1012.4 |
| 20260831232417 | 26 | 243 | 4.8 | 6.4 | 0.00 | 0.00 | 0.00 | 63 | 1012.6 |
| 20260831232204 | 26 | 245 | 3.2 | 8.0 | 0.00 | 0.00 | 0.00 | 55 | 1012.4 |
| 20260831231703 | 26 | 258 | 3.2 | 9.7 | 0.00 | 0.00 | 0.00 | 50 | 1012.6 |
| 20260831231203 | 27 | 281 | 4.8 | 9.7 | 0.00 | 0.00 | 0.00 | 50 | 1012.6 |
| 20260831230409 | 27 | 261 | 3.2 | 9.7 | 0.00 | 0.00 | 0.00 | 49 | 1012.4 |
| 20260831225909 | 27 | 261 | 6.4 | 11.3 | 0.00 | 0.00 | 0.00 | 48 | 1012.6 |
| 20260831225658 | 27 | 268 | 6.4 | 11.3 | 0.00 | 0.00 | 0.00 | 55 | 1012.4 |
| 20260831224909 | 27 | 278 | 6.4 | 11.3 | 0.00 | 0.00 | 0.00 | 52 | 1012.4 |
| 20260831224659 | 28 | 276 | 6.4 | 11.3 | 0.00 | 0.00 | 0.00 | 52 | 1012.3 |
| 20260831223909 | 28 | 283 | 8.0 | 11.3 | 0.00 | 0.00 | 0.00 | 48 | 1012.3 |
| 20260831223409 | 28 | 271 | 8.0 | 14.5 | 0.00 | 0.00 | 0.00 | 47 | 1012.3 |
| 20260831222909 | 28 | 290 | 8.0 | 17.7 | 0.00 | 0.00 | 0.00 | 47 | 1012.4 |
| 20260831222408 | 28 | 312 | 8.0 | 17.7 | 0.00 | 0.00 | 0.00 | 48 | 1012.4 |
| 20260831221907 | 28 | 244 | 8.0 | 16.1 | 0.00 | 0.00 | 0.00 | 45 | 1012.3 |
| 20260831221409 | 28 | 310 | 8.0 | 16.1 | 0.00 | 0.00 | 0.00 | 44 | 1012.3 |
| 20260831220908 | 28 | 290 | 11.3 | 17.7 | 0.00 | 0.00 | 0.00 | 48 | 1012.3 |
| 20260831220405 | 29 | 265 | 12.9 | 17.7 | 0.00 | 0.00 | 0.00 | 46 | 1012.2 |
| 20260831220157 | 29 | 240 | 9.7 | 14.5 | 0.00 | 0.00 | 0.00 | 46 | 1012.1 |
| 20260831215655 | 29 | 261 | 6.4 | 14.5 | 0.00 | 0.00 | 0.00 | 48 | 1012.2 |
| 20260831214904 | 29 | 259 | 8.0 | 14.5 | 0.00 | 0.00 | 0.00 | 41 | 1012.1 |
| 20260831214403 | 29 | 289 | 8.0 | 16.1 | 0.00 | 0.00 | 0.00 | 46 | 1012.1 |
| 20260831213902 | 29 | 306 | 9.7 | 16.1 | 0.00 | 0.00 | 0.00 | 49 | 1012.1 |
| 20260831213707 | 29 | 262 | 9.7 | 14.5 | 0.00 | 0.00 | 0.00 | 44 | 1012.1 |
| 20260831212651 | 29 | 279 | 9.7 | 16.1 | 0.00 | 0.00 | 0.00 | 48 | 1012.1 |
| 20260831211902 | 30 | 302 | 8.0 | 16.1 | 0.00 | 0.00 | 0.00 | 46 | 1012.1 |
| 20260831211404 | 30 | 283 | 8.0 | 17.7 | 0.00 | 0.00 | 0.00 | 44 | 1012.2 |
| 20260831210902 | 30 | 292 | 9.7 | 17.7 | 0.00 | 0.00 | 0.00 | 41 | 1012.2 |
| 20260831210402 | 30 | 261 | 6.4 | 19.3 | 0.00 | 0.00 | 0.00 | 40 | 1012.3 |
| 20260831205917 | 30 | 293 | 12.9 | 19.3 | 0.00 | 0.00 | 0.00 | 48 | 1012.3 |
| 20260831204905 | 30 | 299 | 11.3 | 17.7 | 0.00 | 0.00 | 0.00 | 41 | 1012.3 |
| 20260831204402 | 30 | 305 | 11.3 | 17.7 | 0.00 | 0.00 | 0.00 | 46 | 1012.2 |
| 20260831203901 | 30 | 316 | 8.0 | 17.7 | 0.00 | 0.00 | 0.00 | 45 | 1012.3 |
| 20260831203401 | 30 | 271 | 9.7 | 17.7 | 0.00 | 0.00 | 0.00 | 47 | 1012.3 |
| 20260831202902 | 29 | 252 | 3.2 | 19.3 | 0.00 | 0.00 | 0.00 | 43 | 1012.3 |
| 20260831202402 | 30 | 343 | 12.9 | 19.3 | 0.00 | 0.00 | 0.00 | 45 | 1012.3 |
| 20260831201902 | 30 | 303 | 12.9 | 19.3 | 0.00 | 0.00 | 0.00 | 48 | 1012.3 |
| 20260831201400 | 29 | 305 | 4.8 | 14.5 | 0.00 | 0.00 | 0.00 | 45 | 1012.2 |
| 20260831201151 | 29 | 312 | 4.8 | 16.1 | 0.00 | 0.00 | 0.00 | 44 | 1012.2 |
| 20260831200403 | 29 | 295 | 8.0 | 16.1 | 0.00 | 0.00 | 0.00 | 52 | 1012.1 |
| 20260831195902 | 29 | 312 | 6.4 | 14.5 | 0.00 | 0.00 | 0.00 | 47 | 1012.2 |
| 20260831195401 | 29 | 312 | 9.7 | 14.5 | 0.00 | 0.00 | 0.00 | 54 | 1012.1 |
| 20260831194901 | 29 | 303 | 4.8 | 14.5 | 0.00 | 0.00 | 0.00 | 50 | 1012.1 |
| 20260831194401 | 29 | 323 | 8.0 | 17.7 | 0.00 | 0.00 | 0.00 | 52 | 1012.0 |
| 20260831193901 | 30 | 282 | 9.7 | 19.3 | 0.00 | 0.00 | 0.00 | 48 | 1012.0 |
| 20260831193403 | 29 | 292 | 12.9 | 19.3 | 0.00 | 0.00 | 0.00 | 46 | 1012.0 |
| 20260831192900 | 28 | 310 | 11.3 | 16.1 | 0.00 | 0.00 | 0.00 | 52 | 1012.0 |
| 20260831192403 | 27 | 323 | 6.4 | 14.5 | 0.00 | 0.00 | 0.00 | 52 | 1012.0 |
| 20260831191900 | 27 | 321 | 9.7 | 16.1 | 0.00 | 0.00 | 0.00 | 56 | 1011.9 |
| 20260831191403 | 27 | 307 | 9.7 | 19.3 | 0.00 | 0.00 | 0.00 | 53 | 1011.9 |
| 20260831190901 | 28 | 323 | 11.3 | 19.3 | 0.00 | 0.00 | 0.00 | 50 | 1011.8 |
| 20260831190401 | 29 | 329 | 3.2 | 17.7 | 0.00 | 0.00 | 0.00 | 46 | 1011.9 |
| 20260831185900 | 29 | 314 | 9.7 | 17.7 | 0.00 | 0.00 | 0.00 | 49 | 1011.9 |
| 20260831185401 | 28 | 313 | 8.0 | 24.1 | 0.00 | 0.00 | 0.00 | 52 | 1011.9 |
| 20260831184901 | 28 | 330 | 14.5 | 24.1 | 0.00 | 0.00 | 0.00 | 54 | 1011.9 |
| 20260831184403 | 28 | 327 | 11.3 | 24.1 | 0.00 | 0.00 | 0.00 | 56 | 1012.0 |
| 20260831183902 | 30 | 295 | 17.7 | 20.9 | 0.00 | 0.00 | 0.00 | 54 | 1011.9 |
| 20260831183650 | 29 | 299 | 12.9 | 19.3 | 0.00 | 0.00 | 0.00 | 46 | 1011.9 |
| 20260831182900 | 28 | 303 | 8.0 | 19.3 | 0.00 | 0.00 | 0.00 | 52 | 1011.9 |
| 20260831182401 | 28 | 333 | 14.5 | 19.3 | 0.00 | 0.00 | 0.00 | 46 | 1011.9 |
| 20260831181901 | 29 | 357 | 6.4 | 16.1 | 0.00 | 0.00 | 0.00 | 54 | 1012.0 |
| 20260831181402 | 29 | 7 | 8.0 | 22.5 | 0.00 | 0.00 | 0.00 | 58 | 1012.0 |
| 20260831180901 | 29 | 347 | 14.5 | 22.5 | 0.00 | 0.00 | 0.00 | 52 | 1011.9 |
| 20260831180401 | 29 | 303 | 14.5 | 24.1 | 0.00 | 0.00 | 0.00 | 55 | 1012.0 |
| 20260831175901 | 28 | 317 | 17.7 | 29.0 | 0.00 | 0.00 | 0.00 | 55 | 1012.1 |
| 20260831175401 | 28 | 319 | 17.7 | 29.0 | 0.00 | 0.00 | 0.00 | 50 | 1012.0 |
| 20260831175150 | 28 | 312 | 16.1 | 24.1 | 0.00 | 0.00 | 0.00 | 54 | 1012.0 |
| 20260831174423 | 28 | 274 | 14.5 | 24.1 | 0.00 | 0.00 | 0.00 | 57 | 1012.0 |
| 20260831173405 | 28 | 320 | 12.9 | 22.5 | 0.00 | 0.00 | 0.00 | 57 | 1012.0 |
| 20260831172904 | 28 | 300 | 16.1 | 25.7 | 0.00 | 0.00 | 0.00 | 52 | 1012.0 |
| 20260831172404 | 28 | 300 | 20.9 | 27.4 | 0.00 | 0.00 | 0.00 | 58 | 1012.0 |
| 20260831172146 | 27 | 292 | 17.7 | 27.4 | 0.00 | 0.00 | 0.00 | 57 | 1012.0 |
| 20260831171401 | 28 | 320 | 17.7 | 24.1 | 0.00 | 0.00 | 0.00 | 62 | 1012.0 |
| 20260831170901 | 28 | 317 | 20.9 | 24.1 | 0.00 | 0.00 | 0.00 | 59 | 1012.0 |
| 20260831170642 | 28 | 286 | 16.1 | 22.5 | 0.00 | 0.00 | 0.00 | 64 | 1011.9 |
| 20260831165900 | 27 | 305 | 16.1 | 25.7 | 0.00 | 0.00 | 0.00 | 65 | 1011.9 |
| 20260831165401 | 27 | 324 | 19.3 | 25.7 | 0.00 | 0.00 | 0.00 | 64 | 1011.9 |
| 20260831164901 | 27 | 316 | 17.7 | 25.7 | 0.00 | 0.00 | 0.00 | 66 | 1012.0 |
| 20260831164400 | 28 | 279 | 11.3 | 22.5 | 0.00 | 0.00 | 0.00 | 67 | 1012.0 |
| 20260831163902 | 27 | 320 | 14.5 | 24.1 | 0.00 | 0.00 | 0.00 | 66 | 1011.9 |
| 20260831163359 | 27 | 302 | 17.7 | 24.1 | 0.00 | 0.00 | 0.00 | 68 | 1011.8 |
| 20260831162900 | 27 | 348 | 11.3 | 25.7 | 0.00 | 0.00 | 0.00 | 68 | 1011.9 |
| 20260831162358 | 27 | 299 | 22.5 | 27.4 | 0.00 | 0.00 | 0.00 | 70 | 1011.8 |
| 20260831161856 | 27 | 309 | 16.1 | 27.4 | 0.00 | 0.00 | 0.00 | 70 | 1011.6 |
| 20260831161357 | 27 | 306 | 16.1 | 25.7 | 0.00 | 0.00 | 0.00 | 72 | 1011.8 |
| 20260831160856 | 26 | 320 | 14.5 | 20.9 | 0.00 | 0.00 | 0.00 | 73 | 1011.7 |
| 20260831160353 | 26 | 292 | 14.5 | 22.5 | 0.00 | 0.00 | 0.00 | 74 | 1011.5 |
| 20260831155853 | 26 | 300 | 16.1 | 22.5 | 0.00 | 0.00 | 0.00 | 76 | 1011.5 |
| 20260831155634 | 25 | 313 | 12.9 | 24.1 | 0.00 | 0.00 | 0.00 | 76 | 1011.6 |
| 20260831154851 | 24 | 313 | 16.1 | 24.1 | 0.00 | 0.00 | 0.00 | 80 | 1011.6 |
| 20260831154351 | 24 | 333 | 17.7 | 22.5 | 0.00 | 0.00 | 0.00 | 79 | 1011.6 |
| 20260831153851 | 24 | 302 | 14.5 | 25.7 | 0.00 | 0.00 | 0.00 | 80 | 1011.6 |
| 20260831153632 | 24 | 307 | 17.7 | 25.7 | 0.00 | 0.00 | 0.00 | 79 | 1011.5 |
| 20260831152850 | 24 | 319 | 12.9 | 24.1 | 0.00 | 0.00 | 0.00 | 78 | 1011.4 |
| 20260831152350 | 25 | 312 | 19.3 | 24.1 | 0.00 | 0.00 | 0.00 | 75 | 1011.3 |
| 20260831151850 | 26 | 312 | 11.3 | 20.9 | 0.00 | 0.00 | 0.00 | 78 | 1011.3 |
| 20260831151349 | 26 | 323 | 14.5 | 19.3 | 0.00 | 0.00 | 0.00 | 76 | 1011.3 |
| 20260831150849 | 26 | 337 | 11.3 | 22.5 | 0.00 | 0.00 | 0.00 | 78 | 1011.3 |
| 20260831150350 | 25 | 0 | 9.7 | 22.5 | 0.00 | 0.00 | 0.00 | 80 | 1011.2 |
| 20260831150135 | 25 | 334 | 16.1 | 24.1 | 0.00 | 0.00 | 0.00 | 80 | 1011.1 |
| 20260831145349 | 25 | 312 | 19.3 | 24.1 | 0.00 | 0.00 | 0.00 | 79 | 1010.9 |
| 20260831144846 | 24 | 348 | 14.5 | 29.0 | 0.00 | 0.00 | 0.00 | 81 | 1010.7 |
| 20260831144632 | 24 | 0 | 17.7 | 29.0 | 0.00 | 0.00 | 0.00 | 81 | 1010.6 |
| 20260831143846 | 24 | 0 | 19.3 | 29.0 | 0.00 | 0.00 | 0.00 | 81 | 1010.5 |
| 20260831143345 | 24 | 354 | 20.9 | 33.8 | 0.00 | 0.00 | 0.00 | 81 | 1010.5 |
| 20260831142845 | 23 | 329 | 22.5 | 35.4 | 0.00 | 0.00 | 0.00 | 83 | 1010.5 |
| 20260831142345 | 23 | 327 | 24.1 | 35.4 | 0.00 | 0.00 | 0.00 | 85 | 1010.5 |
| 20260831142127 | 23 | 347 | 22.5 | 29.0 | 0.00 | 0.00 | 0.00 | 87 | 1010.4 |
| 20260831141345 | 23 | 316 | 12.9 | 20.9 | 0.00 | 0.00 | 0.00 | 89 | 1010.5 |
| 20260831140846 | 23 | 316 | 16.1 | 22.5 | 0.00 | 0.00 | 0.00 | 91 | 1010.4 |
| 20260831140346 | 22 | 329 | 16.1 | 22.5 | 0.00 | 0.00 | 0.00 | 92 | 1010.5 |
| 20260831135844 | 22 | 345 | 12.9 | 24.1 | 0.00 | 0.00 | 0.00 | 93 | 1010.3 |
| 20260831135344 | 22 | 326 | 17.7 | 24.1 | 0.00 | 0.00 | 0.00 | 93 | 1010.3 |
| 20260831135127 | 22 | 327 | 16.1 | 22.5 | 0.00 | 0.00 | 0.00 | 93 | 1010.6 |
| 20260831134346 | 21 | 330 | 14.5 | 20.9 | 0.00 | 0.00 | 0.00 | 93 | 1010.5 |
| 20260831133845 | 21 | 316 | 12.9 | 24.1 | 0.00 | 0.00 | 0.00 | 93 | 1010.4 |
| 20260831133345 | 21 | 314 | 11.3 | 24.1 | 0.00 | 0.00 | 0.00 | 93 | 1010.4 |
| 20260831132846 | 21 | 316 | 16.1 | 20.9 | 0.00 | 0.00 | 0.00 | 93 | 1010.4 |
| 20260831132344 | 21 | 321 | 9.7 | 19.3 | 0.00 | 0.00 | 0.00 | 93 | 1010.4 |
| 20260831131845 | 21 | 286 | 12.9 | 19.3 | 0.00 | 0.00 | 0.00 | 93 | 1010.3 |
| 20260831131343 | 21 | 326 | 16.1 | 19.3 | 0.00 | 0.00 | 0.00 | 93 | 1010.2 |
| 20260831130843 | 21 | 309 | 9.7 | 11.3 | 0.00 | 0.00 | 0.00 | 94 | 1010.0 |
| 20260831130343 | 21 | 275 | 6.4 | 11.3 | 0.00 | 0.00 | 0.00 | 93 | 1009.7 |
| 20260831130128 | 21 | 306 | 8.0 | 11.3 | 0.00 | 0.00 | 0.00 | 93 | 1009.6 |
| 20260831125623 | 21 | 292 | 6.4 | 9.7 | 0.00 | 0.00 | 0.00 | 93 | 1009.4 |
| 20260831124843 | 21 | 300 | 6.4 | 9.7 | 0.00 | 0.00 | 0.00 | 94 | 1009.4 |
| 20260831124359 | 21 | 310 | 4.8 | 6.4 | 0.00 | 0.00 | 0.00 | 94 | 1009.3 |
| 20260831123344 | 21 | 283 | 0.0 | 3.2 | 0.00 | 0.00 | 0.00 | 93 | 1009.1 |
| 20260831122844 | 21 | 283 | 0.0 | 3.2 | 0.00 | 0.00 | 0.00 | 93 | 1009.0 |
| 20260831122343 | 21 | 283 | 1.6 | 3.2 | 0.00 | 0.00 | 0.00 | 94 | 1009.1 |
| 20260831121843 | 21 | 283 | 0.0 | 4.8 | 0.00 | 0.00 | 0.00 | 94 | 1008.9 |
| 20260831121344 | 21 | 283 | 1.6 | 4.8 | 0.00 | 0.00 | 0.00 | 94 | 1009.0 |
| 20260831120843 | 21 | 290 | 3.2 | 4.8 | 0.00 | 0.00 | 0.00 | 94 | 1008.8 |
| 20260831120343 | 21 | 300 | 1.6 | 3.2 | 0.00 | 0.00 | 0.00 | 94 | 1008.8 |
| 20260831120127 | 21 | 283 | 1.6 | 4.8 | 0.00 | 0.00 | 0.00 | 94 | 1008.7 |
| 20260831115401 | 21 | 286 | 1.6 | 4.8 | 0.00 | 0.00 | 0.00 | 93 | 1008.8 |
| 20260831114344 | 21 | 282 | 3.2 | 8.0 | 0.00 | 0.00 | 0.00 | 94 | 1008.8 |
| 20260831113842 | 21 | 298 | 1.6 | 8.0 | 0.00 | 0.00 | 0.00 | 94 | 1008.7 |
| 20260831113344 | 21 | 240 | 3.2 | 8.0 | 0.00 | 0.00 | 0.00 | 93 | 1008.6 |